Kezdőlap
METAR-TAF:

METAR-TAF

Repülőterek :

Fremont Municipal Airport

Fremont, Nebraska, Amerikai Egyesült Államok

földrajzi szélesség: 41-27N, földrajzi hosszúság: 096-31W, magasság: 379 m

Jelenlegi meteorológiai megfigyelések

A jelentés 17 perccel ezelõtt készült, 22:35 UTC
Nyugat-északnyugati szél 19 kt széllökések: 29 kt
Hőmérséklet 25°C
Páratartalom 28%
Légköri nyomás 1015 hPa
Látótávolság: 16.1 km
Szórványos felhőzet 8500 lábon

METAR: KFET 272235Z AUTO 30019G29KT 10SM SCT085 25/05 A2996 RMK AO2 T02450046

Idő: 17:52 (22:52 UTC)


TAF: hiányzik

Meteorológiai megfigyelések és előrejelzések több, mint 4000 repülőtéren (METAR és TAF jelentéseket).

A térképen piros és sárga pontok jelzik az elérhető meteorológiai állomásokat.

Mozgassa az egeret a pont fölött, hogy megjelenjen az állomás neve.

Azután kattintson az időjárási megfigyelések és előrejelzések megtekintéséhez.

A térkép megváltoztatása: kattintson a fekete keresztel jelölt zöld gombra ráközelítéshez, a vonallal jelölt zöld gombra távolításhoz, vagy a zöld nyilakra a szomszédos térképek eléréséhez.


METAR-TAF: